[[{"header":{"parameterUnit":"m.s-1","parameterCategory":1,"la1":30.2991,"la2":30.254,"lo1":-89.0895,"lo2":-89.0444,"dy":0.0017,"dx":0.0017,"nx":28,"ny":28,"refTime":"2025-07-05T09:00:00:Z","depth":0,"parameterNumber":2,"parameterNumberName":"U-component_of_WINDS"},"data":[0,0,0,0,0,0,0,0,0,0,0,0,0,0,0,0,0,0,0,0,0,0,0,0,0,0,0,0,0,0,0,0,0,0,0,0,0,0,0,0,0,0,0,0,0,0,0,0,0,0,0,0,0,0,0,0,0,0,-0.4614,-0.4613,0,-0.4558,-0.4558,-0.4557,-0.4517,-0.4517,-0.4517,-0.4517,-0.4453,-0.4451,-0.445,0,0,0,0,0,0,0,0,0,0,0,0,0,-0.468,-0.4679,-0.4614,-0.4613,-0.4613,-0.4558,-0.4558,-0.4557,-0.4518,-0.4517,-0.4517,-0.4516,-0.4453,-0.4452,-0.445,0,0,0,0,0,0,0,0,0,0,0,0,0,-0.464,-0.4679,-0.4614,-0.4587,-0.4584,-0.4558,-0.4557,-0.4557,-0.4518,-0.4517,-0.4517,-0.4516,-0.4454,-0.4452,-0.445,-0.4445,0,0,-0.4443,-0.4442,0,0,0,0,0,0,0,0,-0.4643,-0.4638,-0.4591,-0.4588,-0.4585,-0.4544,-0.4557,-0.4519,-0.4518,-0.4542,-0.4517,-0.4516,-0.4483,-0.4479,-0.4469,-0.4442,-0.444,-0.4443,-0.4442,-0.4441,-0.444,0,0,0,0,0,0,0,-0.4645,-0.464,-0.4592,-0.4591,-0.4587,-0.4575,-0.4569,-0.455,-0.4516,-0.454,-0.4537,-0.4532,-0.4481,-0.4471,-0.4467,-0.4439,-0.4443,-0.4441,-0.444,-0.4439,-0.4404,-0.4405,0,0,0,0,0,0,-0.4653,-0.4643,-0.4593,-0.459,-0.4614,-0.4574,-0.4567,-0.4558,-0.4516,-0.4509,-0.4532,-0.453,-0.4475,-0.447,-0.4465,-0.4456,-0.4441,-0.4439,-0.4437,-0.4404,-0.4404,-0.4405,0,0,0,0,0,0,-0.4655,-0.4649,-0.4596,-0.4616,-0.4608,-0.4574,-0.4563,-0.4557,-0.4547,-0.451,-0.4503,-0.4528,-0.4474,-0.4468,-0.4451,-0.4453,-0.4438,-0.4436,-0.4403,-0.4404,-0.4404,-0.444,0,0,0,0,0,0,-0.4657,-0.465,-0.465,-0.4616,-0.4607,-0.4585,-0.4563,-0.4556,-0.4544,-0.4541,-0.4504,-0.4498,-0.4474,-0.4454,-0.4449,-0.445,-0.4434,-0.4403,-0.4404,-0.4404,-0.4438,-0.4441,-0.4444,0,0,0,0,0,-0.466,-0.4661,-0.465,-0.4644,-0.4606,-0.4585,-0.458,-0.4554,-0.4544,-0.4543,-0.4519,-0.4499,-0.4454,-0.4453,-0.4446,-0.4447,-0.4403,-0.4403,-0.4404,-0.4437,-0.4441,-0.4444,0,0,0,0,0,0,-0.4693,-0.4656,-0.4643,-0.4634,-0.4613,-0.4578,-0.4575,-0.4559,-0.4538,-0.4536,-0.4502,-0.4494,-0.448,-0.4462,-0.4461,-0.444,-0.4426,-0.4425,-0.4453,-0.4456,-0.4459,-0.4463,-0.4432,0,0,0,0,0,-0.47,-0.4688,-0.4655,-0.465,-0.464,-0.461,-0.46,-0.4582,-0.4558,-0.4548,-0.4523,-0.4499,-0.4479,-0.4467,-0.4447,-0.4435,-0.4426,-0.4433,-0.4436,-0.4439,-0.4438,-0.4429,-0.4432,-0.4407,-0.4407,-0.4407,0,0,-0.4713,-0.4691,-0.4685,-0.4656,-0.4638,-0.4624,-0.4603,-0.4589,-0.4578,-0.4545,-0.4528,-0.4509,-0.4479,-0.4465,-0.4458,-0.4449,-0.4443,-0.444,-0.4442,-0.444,-0.4431,-0.4433,-0.4435,-0.4408,-0.4408,-0.4408,0,0,-0.473,-0.4713,-0.4706,-0.4689,-0.4663,-0.4642,-0.4641,-0.4609,-0.4595,-0.4578,-0.4553,-0.4538,-0.4505,-0.4485,-0.4471,-0.448,-0.4461,-0.4474,-0.449,-0.4482,-0.4484,-0.4485,-0.4487,-0.4489,-0.4474,-0.4474,-0.4475,0,-0.4749,-0.473,-0.4704,-0.4693,-0.468,-0.4652,-0.4644,-0.4628,-0.4595,-0.4586,-0.4578,-0.4536,-0.4514,-0.4495,-0.4497,-0.4487,-0.4482,-0.4478,-0.4486,-0.4487,-0.4488,-0.449,-0.4491,-0.4476,-0.4476,-0.4476,-0.4476,0,-0.4753,-0.474,-0.4738,-0.471,-0.4697,-0.4687,-0.4659,-0.4648,-0.4631,-0.4611,-0.4593,-0.4566,-0.454,-0.4534,-0.4516,-0.4511,-0.4507,-0.4493,-0.4478,-0.4493,-0.4494,-0.4494,-0.4479,-0.4478,-0.4478,-0.4477,0,0,-0.4789,-0.4748,-0.4748,-0.4734,-0.4703,-0.4691,-0.468,-0.4656,-0.4647,-0.4625,-0.4613,-0.4587,-0.4574,-0.4557,-0.4537,-0.453,-0.4538,-0.4517,-0.4516,-0.4521,-0.4529,-0.4539,-0.4541,-0.4526,-0.4526,-0.4526,-0.4531,0,-0.48,-0.4781,-0.4758,-0.4744,-0.4731,-0.4704,-0.4694,-0.4672,-0.4654,-0.4638,-0.4615,-0.4597,-0.4582,-0.4572,-0.4564,-0.4539,-0.4539,-0.4538,-0.4512,-0.4511,-0.4519,-0.4541,-0.4552,-0.4559,-0.4532,-0.4532,-0.4532,0,-0.4811,-0.4793,-0.4779,-0.4749,-0.4743,-0.4734,-0.4711,-0.4697,-0.4671,-0.4657,-0.464,-0.4619,-0.4602,-0.459,-0.4566,-0.4566,-0.4554,-0.454,-0.4539,-0.4535,-0.4522,-0.4536,-0.4561,-0.4561,-0.4532,-0.4532,-0.4532,0,-0.4837,-0.4809,-0.4798,-0.4787,-0.4752,-0.4746,-0.4731,-0.4705,-0.4693,-0.4671,-0.4662,-0.4638,-0.4625,-0.4606,-0.4578,-0.4572,-0.4557,-0.4542,-0.4543,-0.4544,-0.454,-0.454,-0.4561,-0.4534,-0.4534,-0.4534,-0.4534,0,-0.4852,-0.4844,-0.4809,-0.4802,-0.4792,-0.4765,-0.4755,-0.4737,-0.4714,-0.4701,-0.4676,-0.4663,-0.4628,-0.4611,-0.4588,-0.4571,-0.4565,-0.4552,-0.4546,-0.4554,-0.4556,-0.4545,-0.4543,-0.4534,-0.4534,-0.4534,-0.4534,0,-0.4879,-0.4856,-0.4841,-0.481,-0.4801,-0.4795,-0.4767,-0.4758,-0.4738,-0.4721,-0.4716,-0.4683,-0.4662,-0.4633,-0.4601,-0.4586,-0.4571,-0.4563,-0.4581,-0.4577,-0.4579,-0.4579,-0.4593,-0.4593,-0.4567,-0.4567,-0.4568,0,-0.4889,-0.4883,-0.4852,-0.4843,-0.4829,-0.4814,-0.4801,-0.4774,-0.4761,-0.4732,-0.4726,-0.4703,-0.4683,-0.4649,-0.4621,-0.4597,-0.4586,-0.4593,-0.4582,-0.459,-0.4585,-0.4585,-0.4584,-0.4595,-0.4595,-0.4596,-0.4596,0,-0.491,-0.4899,-0.4883,-0.4863,-0.485,-0.4832,-0.4813,-0.4806,-0.4774,-0.4761,-0.474,-0.4725,-0.4694,-0.4671,-0.4643,-0.4624,-0.4604,-0.46,-0.4599,-0.4606,-0.4617,-0.461,-0.4587,-0.4599,-0.4599,-0.4599,-0.4599,-0.4599,-0.4928,-0.4921,-0.4899,-0.4881,-0.4865,-0.4848,-0.4837,-0.4817,-0.48,-0.4774,-0.4758,-0.4738,-0.4711,-0.4672,-0.4654,-0.4636,-0.4628,-0.4626,-0.4625,-0.4625,-0.4627,-0.4621,-0.463,-0.463,-0.463,-0.463,-0.463,0,-0.4947,-0.4931,-0.4916,-0.4891,-0.4877,-0.4863,-0.4841,-0.4829,-0.4813,-0.4791,-0.4772,-0.4747,-0.4725,-0.4695,-0.467,-0.4661,-0.4651,-0.4655,-0.4655,-0.465,-0.4636,-0.464,-0.4663,-0.4663,-0.4663,-0.4663,-0.4663,-0.4663,-0.4955,-0.4942,-0.4928,-0.4907,-0.489,-0.4872,-0.486,-0.4844,-0.4826,-0.48,-0.4783,-0.4765,-0.4739,-0.4712,-0.4689,-0.4681,-0.4672,-0.4679,-0.4667,-0.4655,-0.4652,-0.4649,-0.4652,-0.4677,-0.4677,-0.4683,-0.4683,-0.4683]},{"header":{"parameterUnit":"m.s-1","parameterCategory":1,"la1":30.2991,"la2":30.254,"lo1":-89.0895,"lo2":-89.0444,"dy":0.0017,"dx":0.0017,"nx":28,"ny":28,"refTime":"2025-07-05T09:00:00:Z","depth":0,"parameterNumber":3,"parameterNumberName":"V-component_of_WINDS"},"data":[0,0,0,0,0,0,0,0,0,0,0,0,0,0,0,0,0,0,0,0,0,0,0,0,0,0,0,0,0,0,0,0,0,0,0,0,0,0,0,0,0,0,0,0,0,0,0,0,0,0,0,0,0,0,0,0,0,0,-0.6246,-0.6247,0,-0.63,-0.6301,-0.6301,-0.6302,-0.6301,-0.63,-0.63,-0.6353,-0.6355,-0.6357,0,0,0,0,0,0,0,0,0,0,0,0,0,-0.6144,-0.6146,-0.6246,-0.6247,-0.6247,-0.63,-0.6301,-0.6301,-0.6302,-0.6301,-0.63,-0.6299,-0.6353,-0.6355,-0.6358,0,0,0,0,0,0,0,0,0,0,0,0,0,-0.6192,-0.6147,-0.6246,-0.6254,-0.6255,-0.63,-0.6301,-0.6301,-0.6302,-0.6301,-0.63,-0.6299,-0.6352,-0.6355,-0.6358,-0.6397,0,0,-0.6367,-0.6369,0,0,0,0,0,0,0,0,-0.619,-0.6196,-0.6252,-0.6254,-0.6255,-0.6293,-0.6284,-0.6333,-0.6302,-0.6284,-0.63,-0.6299,-0.6334,-0.6338,-0.6351,-0.64,-0.6402,-0.6368,-0.6369,-0.6371,-0.6372,0,0,0,0,0,0,0,-0.6186,-0.6194,-0.6267,-0.6253,-0.6255,-0.6255,-0.6261,-0.6294,-0.6314,-0.6286,-0.6286,-0.6292,-0.6335,-0.6348,-0.6352,-0.6403,-0.6367,-0.637,-0.6372,-0.6373,-0.6489,-0.6491,0,0,0,0,0,0,-0.6181,-0.6191,-0.6266,-0.6269,-0.6219,-0.6258,-0.6264,-0.6282,-0.6314,-0.6318,-0.6293,-0.6292,-0.6343,-0.6348,-0.6354,-0.6404,-0.6371,-0.6374,-0.6375,-0.6488,-0.649,-0.6491,0,0,0,0,0,0,-0.6179,-0.6188,-0.6263,-0.623,-0.624,-0.6261,-0.6281,-0.6284,-0.6297,-0.6319,-0.6323,-0.6303,-0.6342,-0.635,-0.6387,-0.6405,-0.6375,-0.6378,-0.6487,-0.6489,-0.649,-0.6502,0,0,0,0,0,0,-0.6176,-0.6187,-0.6202,-0.623,-0.6242,-0.6296,-0.6282,-0.6285,-0.6302,-0.6301,-0.6329,-0.6333,-0.6342,-0.6383,-0.639,-0.6409,-0.638,-0.6485,-0.6488,-0.649,-0.65,-0.6504,-0.6508,0,0,0,0,0,-0.6173,-0.6202,-0.6203,-0.6212,-0.6261,-0.6297,-0.6303,-0.6313,-0.6304,-0.6319,-0.6334,-0.6332,-0.6402,-0.6386,-0.6395,-0.6415,-0.6484,-0.6487,-0.649,-0.6498,-0.6503,-0.6507,0,0,0,0,0,0,-0.6174,-0.6206,-0.6207,-0.6247,-0.6269,-0.6297,-0.6316,-0.6318,-0.6343,-0.6341,-0.6352,-0.6358,-0.6396,-0.6409,-0.6391,-0.6456,-0.6442,-0.6447,-0.6446,-0.6451,-0.6454,-0.645,-0.6383,0,0,0,0,0,-0.6179,-0.6206,-0.6232,-0.6265,-0.6276,-0.6295,-0.631,-0.6317,-0.634,-0.6349,-0.6367,-0.639,-0.6417,-0.6435,-0.6461,-0.6503,-0.6509,-0.6521,-0.6524,-0.6527,-0.6531,-0.6556,-0.6562,-0.65,-0.65,-0.65,0,0,-0.619,-0.6211,-0.6226,-0.6266,-0.6284,-0.6312,-0.6302,-0.6331,-0.6352,-0.6354,-0.6391,-0.6405,-0.6431,-0.6471,-0.649,-0.6483,-0.655,-0.6531,-0.6533,-0.6535,-0.656,-0.6565,-0.6571,-0.6502,-0.6502,-0.6501,0,0,-0.6223,-0.6241,-0.6271,-0.629,-0.6319,-0.6331,-0.6338,-0.6366,-0.6376,-0.6414,-0.6416,-0.6441,-0.6488,-0.6507,-0.6523,-0.6567,-0.6567,-0.6575,-0.6594,-0.6618,-0.6623,-0.6628,-0.6645,-0.665,-0.6579,-0.6579,-0.6579,0,-0.6232,-0.6274,-0.6286,-0.6317,-0.6334,-0.6339,-0.637,-0.6387,-0.6422,-0.6435,-0.6428,-0.6488,-0.6505,-0.6551,-0.6563,-0.6575,-0.6584,-0.6572,-0.6622,-0.6626,-0.663,-0.6647,-0.6653,-0.658,-0.658,-0.658,-0.658,0,-0.6285,-0.6314,-0.6335,-0.6371,-0.6391,-0.6421,-0.6439,-0.6458,-0.6463,-0.6477,-0.6516,-0.6538,-0.657,-0.6582,-0.6586,-0.6629,-0.6624,-0.6619,-0.6605,-0.6637,-0.6653,-0.6659,-0.6581,-0.6581,-0.6581,-0.658,0,0,-0.6318,-0.6362,-0.637,-0.6387,-0.642,-0.6443,-0.6474,-0.6507,-0.6524,-0.6548,-0.6576,-0.6617,-0.6613,-0.6631,-0.6638,-0.666,-0.6695,-0.6652,-0.6653,-0.666,-0.6745,-0.6749,-0.6756,-0.6696,-0.6697,-0.6698,-0.6743,0,-0.6355,-0.6412,-0.6425,-0.6473,-0.6502,-0.6508,-0.6536,-0.6559,-0.6573,-0.66,-0.6615,-0.6644,-0.6637,-0.6648,-0.667,-0.6686,-0.6713,-0.6683,-0.6722,-0.6723,-0.6715,-0.6764,-0.6767,-0.6809,-0.6749,-0.6751,-0.6751,0,-0.6405,-0.6433,-0.6485,-0.6517,-0.6529,-0.6554,-0.6586,-0.6611,-0.6639,-0.6648,-0.667,-0.6676,-0.671,-0.6695,-0.6743,-0.6722,-0.6739,-0.675,-0.6752,-0.6756,-0.6739,-0.6769,-0.6822,-0.6828,-0.6761,-0.676,-0.6759,0,-0.6426,-0.6476,-0.6514,-0.6529,-0.6566,-0.6584,-0.66,-0.6627,-0.6647,-0.6675,-0.6688,-0.6719,-0.6736,-0.6761,-0.6776,-0.6763,-0.6823,-0.6809,-0.6832,-0.6831,-0.6843,-0.6842,-0.69,-0.6854,-0.6854,-0.6854,-0.6854,0,-0.6466,-0.6497,-0.6524,-0.6547,-0.6584,-0.6599,-0.6635,-0.6651,-0.6676,-0.6703,-0.671,-0.6736,-0.6754,-0.6782,-0.6794,-0.6832,-0.684,-0.6848,-0.6851,-0.6848,-0.6847,-0.6858,-0.6856,-0.6855,-0.6855,-0.6855,-0.6854,0,-0.6493,-0.6512,-0.6555,-0.6588,-0.6597,-0.6623,-0.6652,-0.6675,-0.6691,-0.6725,-0.6734,-0.6758,-0.6792,-0.681,-0.6852,-0.686,-0.6904,-0.6905,-0.6894,-0.6896,-0.6918,-0.6915,-0.6985,-0.6995,-0.6942,-0.6943,-0.6943,0,-0.6517,-0.6542,-0.6579,-0.6598,-0.6616,-0.6646,-0.6667,-0.6684,-0.6706,-0.6741,-0.676,-0.6795,-0.6824,-0.6878,-0.6899,-0.6932,-0.6934,-0.6956,-0.6939,-0.6935,-0.6935,-0.6933,-0.6936,-0.6959,-0.6959,-0.696,-0.696,0,-0.6558,-0.6567,-0.6597,-0.6631,-0.6656,-0.6683,-0.671,-0.6725,-0.6747,-0.6771,-0.6807,-0.6829,-0.6874,-0.6908,-0.6943,-0.6961,-0.6964,-0.6966,-0.6973,-0.6969,-0.6963,-0.6967,-0.6903,-0.6964,-0.6963,-0.6963,-0.6963,-0.6963,-0.6585,-0.6608,-0.6639,-0.6672,-0.6695,-0.6721,-0.6745,-0.6765,-0.6795,-0.6833,-0.6842,-0.688,-0.6909,-0.6957,-0.6976,-0.7006,-0.7002,-0.7012,-0.7014,-0.7016,-0.7018,-0.6959,-0.7013,-0.7013,-0.7013,-0.7012,-0.7012,0,-0.6626,-0.6647,-0.6678,-0.6717,-0.6744,-0.6747,-0.6778,-0.68,-0.6833,-0.6861,-0.689,-0.6932,-0.6967,-0.6992,-0.7028,-0.7047,-0.705,-0.7056,-0.7055,-0.7059,-0.7019,-0.701,-0.7053,-0.7053,-0.7053,-0.7053,-0.7053,-0.7053,-0.6651,-0.6691,-0.6704,-0.6757,-0.6777,-0.6815,-0.6833,-0.6857,-0.688,-0.6927,-0.6956,-0.6973,-0.7001,-0.7039,-0.7071,-0.7078,-0.7091,-0.7097,-0.7103,-0.7066,-0.7061,-0.7057,-0.7048,-0.7099,-0.7099,-0.714,-0.7141,-0.7141]}]]